Time,TemperatureF,DewpointF,PressureIn,WindDirection,WindDirectionDegrees,WindSpeedMPH,WindSpeedGustMPH,Humidity,HourlyPrecipIn,Conditions,Clouds,dailyrainin,SoftwareType,DateUTC
2013-01-05 00:00:00,20.7,14.0,30.03,SW,225,0.0,0.0,75,0.00,,---,0.00,VWS V14.01,2013-01-05 05:00:00,
2013-01-05 00:01:00,20.7,14.0,30.03,SW,225,0.0,0.0,75,0.00,,---,0.00,VWS V14.01,2013-01-05 05:01:00,
2013-01-05 00:06:00,20.5,13.8,30.06,SW,225,0.0,0.0,75,0.00,,---,0.00,VWS V14.01,2013-01-05 05:06:00,
2013-01-05 00:11:00,20.3,13.7,30.06,SW,225,0.0,0.0,75,0.00,,---,0.00,VWS V14.01,2013-01-05 05:11:00,
2013-01-05 00:16:00,20.3,13.7,30.06,SW,225,0.0,0.0,75,0.00,,---,0.00,VWS V14.01,2013-01-05 05:16:00,
2013-01-05 00:20:00,20.3,13.7,30.06,SW,225,0.0,0.0,75,0.00,,---,0.00,VWS V14.01,2013-01-05 05:20:00,
2013-01-05 00:25:00,20.1,13.8,30.06,SW,225,0.0,0.0,76,0.00,,---,0.00,VWS V14.01,2013-01-05 05:25:00,
2013-01-05 00:30:00,20.1,13.8,30.06,SW,225,0.0,0.0,76,0.00,,---,0.00,VWS V14.01,2013-01-05 05:30:00,
2013-01-05 00:35:00,20.1,13.8,30.06,SW,225,0.0,0.0,76,0.00,,---,0.00,VWS V14.01,2013-01-05 05:35:00,
2013-01-05 00:40:00,20.1,13.8,30.06,SW,225,0.0,0.0,76,0.00,,---,0.00,VWS V14.01,2013-01-05 05:40:00,
2013-01-05 00:45:00,19.9,13.6,30.06,SW,225,0.0,0.0,76,0.00,,---,0.00,VWS V14.01,2013-01-05 05:45:00,
2013-01-05 00:50:00,19.9,13.6,30.06,SW,225,0.0,0.0,76,0.00,,---,0.00,VWS V14.01,2013-01-05 05:50:00,
2013-01-05 00:55:00,19.9,13.9,30.06,SW,225,0.0,0.0,77,0.00,,---,0.00,VWS V14.01,2013-01-05 05:55:00,
2013-01-05 01:00:00,19.9,13.9,30.06,SW,225,0.0,0.0,77,0.00,,---,0.00,VWS V14.01,2013-01-05 06:00:00,
2013-01-05 01:05:00,19.9,13.9,30.06,SW,225,0.0,0.0,77,0.00,,---,0.00,VWS V14.01,2013-01-05 06:05:00,
2013-01-05 01:10:00,19.9,13.9,30.06,SW,225,0.0,0.0,77,0.00,,---,0.00,VWS V14.01,2013-01-05 06:10:00,
2013-01-05 01:15:00,19.9,13.9,30.06,SW,225,0.0,0.0,77,0.00,,---,0.00,VWS V14.01,2013-01-05 06:15:00,
2013-01-05 01:20:00,19.8,13.7,30.06,SW,225,0.0,0.0,77,0.00,,---,0.00,VWS V14.01,2013-01-05 06:20:00,
2013-01-05 01:25:00,19.8,13.7,30.06,SW,225,0.0,0.0,77,0.00,,---,0.00,VWS V14.01,2013-01-05 06:25:00,
2013-01-05 01:30:00,19.6,13.9,30.06,SW,225,0.0,0.0,78,0.00,,---,0.00,VWS V14.01,2013-01-05 06:30:00,
2013-01-05 01:35:00,19.6,13.9,30.06,SW,225,0.0,0.0,78,0.00,,---,0.00,VWS V14.01,2013-01-05 06:35:00,
2013-01-05 01:40:00,19.6,13.9,30.06,SW,225,0.0,0.0,78,0.00,,---,0.00,VWS V14.01,2013-01-05 06:40:00,
2013-01-05 01:45:00,19.4,14.0,30.06,SW,225,0.0,0.0,79,0.00,,---,0.00,VWS V14.01,2013-01-05 06:45:00,
2013-01-05 01:50:00,19.4,14.0,30.09,SW,225,0.0,0.0,79,0.00,,---,0.00,VWS V14.01,2013-01-05 06:50:00,
2013-01-05 01:55:00,19.4,14.0,30.09,SW,225,0.0,0.0,79,0.00,,---,0.00,VWS V14.01,2013-01-05 06:55:00,
2013-01-05 02:00:00,19.4,14.0,30.09,SW,225,0.0,0.0,79,0.00,,---,0.00,VWS V14.01,2013-01-05 07:00:00,
2013-01-05 02:05:00,19.4,14.0,30.09,SW,225,0.0,0.0,79,0.00,,---,0.00,VWS V14.01,2013-01-05 07:05:00,
2013-01-05 02:10:00,19.4,14.0,30.09,SW,225,0.0,0.0,79,0.00,,---,0.00,VWS V14.01,2013-01-05 07:10:00,
2013-01-05 02:15:00,19.4,14.0,30.09,SW,225,0.0,0.0,79,0.00,,---,0.00,VWS V14.01,2013-01-05 07:15:00,
2013-01-05 02:20:00,19.2,13.8,30.09,SW,225,0.0,0.0,79,0.00,,---,0.00,VWS V14.01,2013-01-05 07:20:00,
2013-01-05 02:25:00,19.2,14.1,30.09,SW,225,0.0,0.0,80,0.00,,---,0.00,VWS V14.01,2013-01-05 07:25:00,
2013-01-05 02:30:00,19.2,14.1,30.09,SW,225,0.0,0.0,80,0.00,,---,0.00,VWS V14.01,2013-01-05 07:30:00,
2013-01-05 02:35:00,19.2,14.1,30.09,SW,225,0.0,0.0,80,0.00,,---,0.00,VWS V14.01,2013-01-05 07:35:00,
2013-01-05 02:40:00,19.2,14.1,30.09,SW,225,0.0,0.0,80,0.00,,---,0.00,VWS V14.01,2013-01-05 07:40:00,
2013-01-05 02:45:00,19.2,14.1,30.09,SW,225,0.0,0.0,80,0.00,,---,0.00,VWS V14.01,2013-01-05 07:45:00,
2013-01-05 02:50:00,19.2,14.1,30.09,SW,225,0.0,0.0,80,0.00,,---,0.00,VWS V14.01,2013-01-05 07:50:00,
2013-01-05 02:55:00,19.0,13.9,30.09,SW,225,0.0,0.0,80,0.00,,---,0.00,VWS V14.01,2013-01-05 07:55:00,
2013-01-05 03:00:00,19.0,14.2,30.09,SW,225,0.0,0.0,81,0.00,,---,0.00,VWS V14.01,2013-01-05 08:00:00,
2013-01-05 03:05:00,19.0,14.2,30.09,SW,225,0.0,0.0,81,0.00,,---,0.00,VWS V14.01,2013-01-05 08:05:00,
2013-01-05 03:10:00,19.0,14.2,30.09,SW,225,0.0,0.0,81,0.00,,---,0.00,VWS V14.01,2013-01-05 08:10:00,
2013-01-05 03:15:00,18.9,14.0,30.09,SW,225,0.0,0.0,81,0.00,,---,0.00,VWS V14.01,2013-01-05 08:15:00,
2013-01-05 03:20:00,18.9,14.0,30.12,SW,225,0.0,0.0,81,0.00,,---,0.00,VWS V14.01,2013-01-05 08:20:00,
2013-01-05 03:25:00,19.0,14.2,30.12,SW,225,0.0,0.0,81,0.00,,---,0.00,VWS V14.01,2013-01-05 08:25:00,
2013-01-05 03:30:00,19.0,14.2,30.12,SW,225,0.0,0.0,81,0.00,,---,0.00,VWS V14.01,2013-01-05 08:30:00,
2013-01-05 03:35:00,19.0,14.2,30.12,SW,225,0.0,0.0,81,0.00,,---,0.00,VWS V14.01,2013-01-05 08:35:00,
2013-01-05 03:40:00,19.2,14.4,30.12,SW,225,0.0,0.0,81,0.00,,---,0.00,VWS V14.01,2013-01-05 08:40:00,
2013-01-05 03:45:00,19.0,14.2,30.12,SW,225,0.0,0.0,81,0.00,,---,0.00,VWS V14.01,2013-01-05 08:45:00,
2013-01-05 03:50:00,19.0,14.2,30.12,SW,225,0.0,0.0,81,0.00,,---,0.00,VWS V14.01,2013-01-05 08:50:00,
2013-01-05 03:55:00,19.2,14.4,30.12,SW,225,0.0,0.0,81,0.00,,---,0.00,VWS V14.01,2013-01-05 08:55:00,
2013-01-05 04:00:00,19.2,14.6,30.12,SW,225,0.0,0.0,82,0.00,,---,0.00,VWS V14.01,2013-01-05 09:00:00,
2013-01-05 04:05:00,19.2,14.6,30.12,SW,225,0.0,0.0,82,0.00,,---,0.00,VWS V14.01,2013-01-05 09:05:00,
2013-01-05 04:10:00,19.2,14.6,30.12,SW,225,0.0,0.0,82,0.00,,---,0.00,VWS V14.01,2013-01-05 09:10:00,
2013-01-05 04:15:00,19.2,14.6,30.12,SW,225,0.0,0.0,82,0.00,,---,0.00,VWS V14.01,2013-01-05 09:15:00,
2013-01-05 04:20:00,19.0,14.5,30.12,SW,225,0.0,0.0,82,0.00,,---,0.00,VWS V14.01,2013-01-05 09:20:00,
2013-01-05 04:25:00,19.0,14.5,30.12,SW,225,0.0,0.0,82,0.00,,---,0.00,VWS V14.01,2013-01-05 09:25:00,
2013-01-05 04:30:00,19.0,14.5,30.12,SW,225,0.0,0.0,82,0.00,,---,0.00,VWS V14.01,2013-01-05 09:30:00,
2013-01-05 04:35:00,19.0,14.5,30.12,SW,225,0.0,0.0,82,0.00,,---,0.00,VWS V14.01,2013-01-05 09:35:00,
2013-01-05 04:40:00,19.0,14.5,30.12,SW,225,0.0,0.0,82,0.00,,---,0.00,VWS V14.01,2013-01-05 09:40:00,
2013-01-05 04:45:00,19.0,14.5,30.12,SW,225,0.0,0.0,82,0.00,,---,0.00,VWS V14.01,2013-01-05 09:45:00,
2013-01-05 04:50:00,19.0,14.5,30.12,SW,225,0.0,0.0,82,0.00,,---,0.00,VWS V14.01,2013-01-05 09:50:00,
2013-01-05 04:55:00,19.0,14.5,30.12,SW,225,0.0,0.0,82,0.00,,---,0.00,VWS V14.01,2013-01-05 09:55:00,
2013-01-05 05:00:00,19.0,14.7,30.12,SW,225,0.0,0.0,83,0.00,,---,0.00,VWS V14.01,2013-01-05 10:00:00,
2013-01-05 05:05:00,19.0,14.7,30.12,SW,225,0.0,0.0,83,0.00,,---,0.00,VWS V14.01,2013-01-05 10:05:00,
2013-01-05 05:10:00,19.0,14.7,30.12,SW,225,0.0,0.0,83,0.00,,---,0.00,VWS V14.01,2013-01-05 10:10:00,
2013-01-05 05:15:00,19.0,14.7,30.12,SW,225,0.0,0.0,83,0.00,,---,0.00,VWS V14.01,2013-01-05 10:15:00,
2013-01-05 05:20:00,19.0,14.7,30.12,SW,225,0.0,0.0,83,0.00,,---,0.00,VWS V14.01,2013-01-05 10:20:00,
2013-01-05 05:25:00,19.0,14.7,30.12,SW,225,0.0,0.0,83,0.00,,---,0.00,VWS V14.01,2013-01-05 10:25:00,
2013-01-05 05:30:00,18.5,14.2,30.12,SW,225,0.0,0.0,83,0.00,,---,0.00,VWS V14.01,2013-01-05 10:30:00,
2013-01-05 05:35:00,18.5,13.9,30.12,SW,225,0.0,0.0,82,0.00,,---,0.00,VWS V14.01,2013-01-05 10:35:00,
2013-01-05 05:40:00,18.3,14.0,30.12,SW,225,0.0,0.0,83,0.00,,---,0.00,VWS V14.01,2013-01-05 10:40:00,
2013-01-05 05:45:00,18.5,14.2,30.12,SW,225,0.0,0.0,83,0.00,,---,0.00,VWS V14.01,2013-01-05 10:45:00,
2013-01-05 05:50:00,18.3,14.0,30.12,SW,225,0.0,0.0,83,0.00,,---,0.00,VWS V14.01,2013-01-05 10:50:00,
2013-01-05 05:55:00,18.3,14.0,30.12,SW,225,0.0,0.0,83,0.00,,---,0.00,VWS V14.01,2013-01-05 10:55:00,
2013-01-05 06:00:00,18.3,14.0,30.12,SW,225,0.0,0.0,83,0.00,,---,0.00,VWS V14.01,2013-01-05 11:00:00,
2013-01-05 06:05:00,18.3,14.0,30.12,SW,225,0.0,0.0,83,0.00,,---,0.00,VWS V14.01,2013-01-05 11:05:00,
2013-01-05 06:10:00,18.3,14.3,30.12,SW,225,0.0,0.0,84,0.00,,---,0.00,VWS V14.01,2013-01-05 11:10:00,
2013-01-05 06:15:00,18.3,14.3,30.12,SW,225,0.0,0.0,84,0.00,,---,0.00,VWS V14.01,2013-01-05 11:15:00,
2013-01-05 06:20:00,18.5,14.5,30.09,SW,225,0.0,0.0,84,0.00,,---,0.00,VWS V14.01,2013-01-05 11:20:00,
2013-01-05 06:25:00,18.3,14.3,30.09,SW,225,0.0,0.0,84,0.00,,---,0.00,VWS V14.01,2013-01-05 11:25:00,
2013-01-05 06:30:00,18.3,14.3,30.09,SW,225,0.0,0.0,84,0.00,,---,0.00,VWS V14.01,2013-01-05 11:30:00,
2013-01-05 06:35:00,18.1,14.1,30.12,SW,225,0.0,0.0,84,0.00,,---,0.00,VWS V14.01,2013-01-05 11:35:00,
2013-01-05 06:40:00,18.1,13.9,30.12,SW,225,0.0,0.0,83,0.00,,---,0.00,VWS V14.01,2013-01-05 11:40:00,
2013-01-05 06:45:00,17.8,13.5,30.12,SW,225,0.0,0.0,83,0.00,,---,0.00,VWS V14.01,2013-01-05 11:45:00,
2013-01-05 06:50:00,17.8,13.5,30.12,SW,225,0.0,0.0,83,0.00,,---,0.00,VWS V14.01,2013-01-05 11:50:00,
2013-01-05 06:55:00,17.8,13.5,30.12,SW,225,0.0,0.0,83,0.00,,---,0.00,VWS V14.01,2013-01-05 11:55:00,
2013-01-05 07:00:00,17.6,13.3,30.12,SW,225,0.0,0.0,83,0.00,,---,0.00,VWS V14.01,2013-01-05 12:00:00,
2013-01-05 07:05:00,17.6,13.3,30.12,SW,225,0.0,0.0,83,0.00,,---,0.00,VWS V14.01,2013-01-05 12:05:00,
2013-01-05 07:10:00,17.4,13.1,30.12,SW,225,0.0,0.0,83,0.00,,---,0.00,VWS V14.01,2013-01-05 12:10:00,
2013-01-05 07:15:00,17.8,13.5,30.12,SW,225,0.0,0.0,83,0.00,,---,0.00,VWS V14.01,2013-01-05 12:15:00,
2013-01-05 07:20:00,17.6,13.6,30.12,SW,225,0.0,0.0,84,0.00,,---,0.00,VWS V14.01,2013-01-05 12:20:00,
2013-01-05 07:25:00,17.6,13.6,30.12,SW,225,0.0,0.0,84,0.00,,---,0.00,VWS V14.01,2013-01-05 12:25:00,
2013-01-05 07:30:00,17.8,13.5,30.12,SW,225,0.0,0.0,83,0.00,,---,0.00,VWS V14.01,2013-01-05 12:30:00,
2013-01-05 07:35:00,17.6,13.6,30.12,SW,225,0.0,0.0,84,0.00,,---,0.00,VWS V14.01,2013-01-05 12:35:00,
2013-01-05 07:40:00,17.6,13.6,30.12,SW,225,0.0,0.0,84,0.00,,---,0.00,VWS V14.01,2013-01-05 12:40:00,
2013-01-05 07:45:00,17.4,13.1,30.12,SW,225,0.0,0.0,83,0.00,,---,0.00,VWS V14.01,2013-01-05 12:45:00,
2013-01-05 07:50:00,17.6,13.3,30.12,SW,225,0.0,0.0,83,0.00,,---,0.00,VWS V14.01,2013-01-05 12:50:00,
2013-01-05 07:55:00,17.8,13.5,30.12,SW,225,0.0,0.0,83,0.00,,---,0.00,VWS V14.01,2013-01-05 12:55:00,
2013-01-05 08:00:00,17.8,13.8,30.12,SW,225,0.0,0.0,84,0.00,,---,0.00,VWS V14.01,2013-01-05 13:00:00,
2013-01-05 08:05:00,17.6,13.6,30.12,SW,225,0.0,0.0,84,0.00,,---,0.00,VWS V14.01,2013-01-05 13:05:00,
2013-01-05 08:10:00,17.6,13.6,30.12,SW,225,0.0,0.0,84,0.00,,---,0.00,VWS V14.01,2013-01-05 13:10:00,
2013-01-05 08:15:00,17.6,13.3,30.12,SW,225,0.0,0.0,83,0.00,,---,0.00,VWS V14.01,2013-01-05 13:15:00,
2013-01-05 08:20:00,17.6,13.3,30.15,SW,225,0.0,0.0,83,0.00,,---,0.00,VWS V14.01,2013-01-05 13:20:00,
2013-01-05 08:25:00,17.6,13.3,30.15,SW,225,0.0,0.0,83,0.00,,---,0.00,VWS V14.01,2013-01-05 13:25:00,
2013-01-05 08:30:00,17.8,13.5,30.15,SW,225,0.0,0.0,83,0.00,,---,0.00,VWS V14.01,2013-01-05 13:30:00,
2013-01-05 08:35:00,17.8,13.5,30.12,SW,225,0.0,0.0,83,0.00,,---,0.00,VWS V14.01,2013-01-05 13:35:00,
2013-01-05 08:40:00,17.8,13.5,30.12,SW,225,0.0,0.0,83,0.00,,---,0.00,VWS V14.01,2013-01-05 13:40:00,
2013-01-05 08:45:00,18.0,13.9,30.12,SW,225,0.0,0.0,84,0.00,,---,0.00,VWS V14.01,2013-01-05 13:45:00,
2013-01-05 08:50:00,18.0,13.7,30.12,SW,225,0.0,0.0,83,0.00,,---,0.00,VWS V14.01,2013-01-05 13:50:00,
2013-01-05 08:55:00,18.1,13.9,30.12,SW,225,0.0,0.0,83,0.00,,---,0.00,VWS V14.01,2013-01-05 13:55:00,
2013-01-05 09:00:00,18.3,14.3,30.12,SW,225,0.0,0.0,84,0.00,,---,0.00,VWS V14.01,2013-01-05 14:00:00,
2013-01-05 09:05:00,18.5,14.5,30.12,SW,225,0.0,0.0,84,0.00,,---,0.00,VWS V14.01,2013-01-05 14:05:00,
2013-01-05 09:10:00,18.7,14.7,30.12,SW,225,0.0,0.0,84,0.00,,---,0.00,VWS V14.01,2013-01-05 14:10:00,
2013-01-05 09:15:00,19.0,15.3,30.12,SW,225,0.0,0.0,85,0.00,,---,0.00,VWS V14.01,2013-01-05 14:15:00,
2013-01-05 09:20:00,19.4,15.6,30.12,SW,225,0.0,0.0,85,0.00,,---,0.00,VWS V14.01,2013-01-05 14:20:00,
2013-01-05 09:24:00,19.8,16.0,30.12,SW,225,0.0,0.0,85,0.00,,---,0.00,VWS V14.01,2013-01-05 14:24:00,
2013-01-05 09:29:00,20.1,16.3,30.12,SW,225,0.0,0.0,85,0.00,,---,0.00,VWS V14.01,2013-01-05 14:29:00,
2013-01-05 09:34:00,20.3,16.5,30.15,SW,225,0.0,0.0,85,0.00,,---,0.00,VWS V14.01,2013-01-05 14:34:00,
2013-01-05 09:39:00,20.3,16.5,30.15,SW,225,0.0,0.0,85,0.00,,---,0.00,VWS V14.01,2013-01-05 14:39:00,
2013-01-05 09:44:00,21.2,17.7,30.15,SW,225,0.0,0.0,86,0.00,,---,0.00,VWS V14.01,2013-01-05 14:44:00,
2013-01-05 09:49:00,21.9,18.4,30.12,SW,225,0.0,0.0,86,0.00,,---,0.00,VWS V14.01,2013-01-05 14:49:00,
2013-01-05 09:54:00,22.5,18.9,30.12,SW,225,0.0,0.0,86,0.00,,---,0.00,VWS V14.01,2013-01-05 14:54:00,
2013-01-05 09:59:00,22.6,19.1,30.12,SW,225,0.0,0.0,86,0.00,,---,0.00,VWS V14.01,2013-01-05 14:59:00,
2013-01-05 10:04:00,22.8,19.3,30.15,SW,225,0.0,0.0,86,0.00,,---,0.00,VWS V14.01,2013-01-05 15:04:00,
2013-01-05 10:09:00,23.0,19.5,30.15,SW,225,0.0,0.0,86,0.00,,---,0.00,VWS V14.01,2013-01-05 15:09:00,
2013-01-05 10:14:00,23.0,19.5,30.15,SW,225,0.0,0.0,86,0.00,,---,0.00,VWS V14.01,2013-01-05 15:14:00,
2013-01-05 10:19:00,23.4,19.5,30.15,SW,225,0.0,0.0,85,0.00,,---,0.00,VWS V14.01,2013-01-05 15:19:00,
2013-01-05 10:24:00,23.4,19.5,30.15,SW,225,0.0,0.0,85,0.00,,---,0.00,VWS V14.01,2013-01-05 15:24:00,
2013-01-05 10:29:00,23.5,19.7,30.15,SW,225,0.0,0.0,85,0.00,,---,0.00,VWS V14.01,2013-01-05 15:29:00,
2013-01-05 10:34:00,23.7,19.9,30.15,SW,225,0.0,0.0,85,0.00,,---,0.00,VWS V14.01,2013-01-05 15:34:00,
2013-01-05 10:39:00,23.9,20.1,30.15,SW,225,0.0,0.0,85,0.00,,---,0.00,VWS V14.01,2013-01-05 15:39:00,
2013-01-05 10:44:00,24.8,21.2,30.15,SW,225,0.0,0.0,86,0.00,,---,0.00,VWS V14.01,2013-01-05 15:44:00,
2013-01-05 10:49:00,25.5,21.9,30.15,SW,225,0.0,0.0,86,0.00,,---,0.00,VWS V14.01,2013-01-05 15:49:00,
2013-01-05 10:54:00,26.1,22.5,30.15,SW,225,0.0,0.0,86,0.00,,---,0.00,VWS V14.01,2013-01-05 15:54:00,
2013-01-05 10:59:00,26.1,22.5,30.15,SW,225,0.0,0.0,86,0.00,,---,0.00,VWS V14.01,2013-01-05 15:59:00,
2013-01-05 11:04:00,26.4,22.8,30.15,SW,225,0.0,0.0,86,0.00,,---,0.00,VWS V14.01,2013-01-05 16:04:00,
2013-01-05 11:09:00,26.6,23.0,30.15,SW,225,0.0,0.0,86,0.00,,---,0.00,VWS V14.01,2013-01-05 16:09:00,
2013-01-05 11:14:00,27.1,23.2,30.15,SW,225,0.0,0.0,85,0.00,,---,0.00,VWS V14.01,2013-01-05 16:14:00,
2013-01-05 11:19:00,27.7,23.8,30.12,SW,225,0.0,0.0,85,0.00,,---,0.00,VWS V14.01,2013-01-05 16:19:00,
2013-01-05 11:24:00,28.2,24.3,30.12,SW,225,0.0,0.0,85,0.00,,---,0.00,VWS V14.01,2013-01-05 16:24:00,
2013-01-05 11:29:00,28.6,24.4,30.12,SW,225,0.0,0.0,84,0.00,,---,0.00,VWS V14.01,2013-01-05 16:29:00,
2013-01-05 11:34:00,28.6,23.8,30.12,SW,225,0.0,0.0,82,0.00,,---,0.00,VWS V14.01,2013-01-05 16:34:00,
2013-01-05 13:25:00,31.1,21.8,30.06,SW,225,0.0,0.0,68,0.00,,---,0.00,VWS V14.01,2013-01-05 18:25:00,
2013-01-05 13:30:00,31.3,21.6,30.06,SW,225,0.0,0.0,67,0.00,,---,0.00,VWS V14.01,2013-01-05 18:30:00,
2013-01-05 13:35:00,31.3,21.3,30.03,SW,225,0.0,0.0,66,0.00,,---,0.00,VWS V14.01,2013-01-05 18:35:00,
2013-01-05 13:40:00,31.6,22.0,30.03,SW,225,0.0,0.0,67,0.00,,---,0.00,VWS V14.01,2013-01-05 18:40:00,
2013-01-05 13:45:00,31.8,22.1,30.03,SW,225,0.0,0.0,67,0.00,,---,0.00,VWS V14.01,2013-01-05 18:45:00,
2013-01-05 13:50:00,32.0,21.9,30.03,SW,225,0.0,0.0,66,0.00,,---,0.00,VWS V14.01,2013-01-05 18:50:00,
2013-01-05 13:55:00,32.2,22.5,30.03,SW,225,0.0,0.0,67,0.00,,---,0.00,VWS V14.01,2013-01-05 18:55:00,
2013-01-05 14:00:00,32.4,22.3,30.03,SW,225,0.0,0.0,66,0.00,,---,0.00,VWS V14.01,2013-01-05 19:00:00,
2013-01-05 14:05:00,32.2,21.8,30.03,SW,225,0.0,0.0,65,0.00,,---,0.00,VWS V14.01,2013-01-05 19:05:00,
2013-01-05 14:10:00,32.2,21.8,30.03,SW,225,0.0,0.0,65,0.00,,---,0.00,VWS V14.01,2013-01-05 19:10:00,
2013-01-05 14:15:00,32.2,22.1,30.03,SW,225,0.0,0.0,66,0.00,,---,0.00,VWS V14.01,2013-01-05 19:15:00,
2013-01-05 14:20:00,32.4,21.9,30.00,SW,225,0.0,0.0,65,0.00,,---,0.00,VWS V14.01,2013-01-05 19:20:00,
2013-01-05 14:25:00,32.5,21.0,30.00,SW,225,0.0,0.0,62,0.00,,---,0.00,VWS V14.01,2013-01-05 19:25:00,
2013-01-05 14:30:00,32.5,20.6,30.00,SW,225,0.0,0.0,61,0.00,,---,0.00,VWS V14.01,2013-01-05 19:30:00,
2013-01-05 14:35:00,32.5,21.0,30.00,SW,225,0.0,0.0,62,0.00,,---,0.00,VWS V14.01,2013-01-05 19:35:00,
2013-01-05 14:40:00,32.2,19.9,30.00,SW,225,0.0,0.0,60,0.00,,---,0.00,VWS V14.01,2013-01-05 19:40:00,
2013-01-05 14:45:00,32.2,20.3,30.00,SW,225,0.0,0.0,61,0.00,,---,0.00,VWS V14.01,2013-01-05 19:45:00,
2013-01-05 14:50:00,32.5,21.0,30.00,SW,225,0.0,0.0,62,0.00,,---,0.00,VWS V14.01,2013-01-05 19:50:00,
2013-01-05 14:55:00,32.9,21.3,30.00,SW,225,0.0,0.0,62,0.00,,---,0.00,VWS V14.01,2013-01-05 19:55:00,
2013-01-05 15:00:00,32.9,21.3,30.00,SW,225,0.0,0.0,62,0.00,,---,0.00,VWS V14.01,2013-01-05 20:00:00,
2013-01-05 15:05:00,32.9,20.9,30.00,SW,225,0.0,0.0,61,0.00,,---,0.00,VWS V14.01,2013-01-05 20:05:00,
2013-01-05 15:10:00,32.7,20.0,30.00,SW,225,0.0,0.0,59,0.00,,---,0.00,VWS V14.01,2013-01-05 20:10:00,
2013-01-05 15:15:00,32.5,19.8,30.00,SW,225,0.0,0.0,59,0.00,,---,0.00,VWS V14.01,2013-01-05 20:15:00,
2013-01-05 15:20:00,32.4,19.2,30.00,SW,225,0.0,0.0,58,0.00,,---,0.00,VWS V14.01,2013-01-05 20:20:00,
2013-01-05 15:25:00,32.2,19.5,30.00,SW,225,0.0,0.0,59,0.00,,---,0.00,VWS V14.01,2013-01-05 20:25:00,
2013-01-05 15:30:00,32.0,19.3,30.00,SW,225,0.0,0.0,59,0.00,,---,0.00,VWS V14.01,2013-01-05 20:30:00,
2013-01-05 15:35:00,32.0,19.3,29.97,SW,225,0.0,0.0,59,0.00,,---,0.00,VWS V14.01,2013-01-05 20:35:00,
2013-01-05 15:40:00,31.8,18.7,29.97,SW,225,0.0,0.0,58,0.00,,---,0.00,VWS V14.01,2013-01-05 20:40:00,
2013-01-05 15:45:00,31.6,19.0,29.97,SW,225,0.0,0.0,59,0.00,,---,0.00,VWS V14.01,2013-01-05 20:45:00,
2013-01-05 15:50:00,31.5,18.8,30.00,SW,225,0.0,0.0,59,0.00,,---,0.00,VWS V14.01,2013-01-05 20:50:00,
2013-01-05 15:55:00,31.1,18.1,30.00,SW,225,0.0,0.0,58,0.00,,---,0.00,VWS V14.01,2013-01-05 20:55:00,
2013-01-05 16:00:00,30.9,17.9,30.00,SW,225,0.0,0.0,58,0.00,,---,0.00,VWS V14.01,2013-01-05 21:00:00,
2013-01-05 16:05:00,30.7,18.1,30.00,SW,225,0.0,0.0,59,0.00,,---,0.00,VWS V14.01,2013-01-05 21:05:00,
2013-01-05 16:10:00,30.7,18.1,30.00,SW,225,0.0,0.0,59,0.00,,---,0.00,VWS V14.01,2013-01-05 21:10:00,
2013-01-05 16:15:00,30.7,18.1,30.00,SW,225,0.0,0.0,59,0.00,,---,0.00,VWS V14.01,2013-01-05 21:15:00,
2013-01-05 16:20:00,30.4,17.8,30.00,SW,225,0.0,0.0,59,0.00,,---,0.00,VWS V14.01,2013-01-05 21:20:00,
2013-01-05 16:25:00,30.0,17.4,30.00,SW,225,0.0,0.0,59,0.00,,---,0.00,VWS V14.01,2013-01-05 21:25:00,
2013-01-05 16:30:00,29.7,17.5,30.00,SW,225,0.0,0.0,60,0.00,,---,0.00,VWS V14.01,2013-01-05 21:30:00,
2013-01-05 16:35:00,29.5,17.3,30.00,SW,225,0.0,0.0,60,0.00,,---,0.00,VWS V14.01,2013-01-05 21:35:00,
2013-01-05 16:40:00,29.1,17.0,30.00,SW,225,0.0,0.0,60,0.00,,---,0.00,VWS V14.01,2013-01-05 21:40:00,
2013-01-05 16:45:00,28.9,16.8,30.00,SW,225,0.0,0.0,60,0.00,,---,0.00,VWS V14.01,2013-01-05 21:45:00,
2013-01-05 16:50:00,28.9,16.8,30.00,SW,225,0.0,0.0,60,0.00,,---,0.00,VWS V14.01,2013-01-05 21:50:00,
2013-01-05 16:55:00,28.8,17.0,30.00,SW,225,0.0,0.0,61,0.00,,---,0.00,VWS V14.01,2013-01-05 21:55:00,
2013-01-05 17:00:00,28.6,16.9,30.00,SW,225,0.0,0.0,61,0.00,,---,0.00,VWS V14.01,2013-01-05 22:00:00,
2013-01-05 17:05:00,28.6,16.9,30.00,SW,225,0.0,0.0,61,0.00,,---,0.00,VWS V14.01,2013-01-05 22:05:00,
2013-01-05 17:10:00,28.4,17.1,30.00,SW,225,0.0,0.0,62,0.00,,---,0.00,VWS V14.01,2013-01-05 22:10:00,
2013-01-05 17:15:00,28.4,17.4,30.00,SW,225,0.0,0.0,63,0.00,,---,0.00,VWS V14.01,2013-01-05 22:15:00,
2013-01-05 17:20:00,28.2,17.3,30.00,SW,225,0.0,0.0,63,0.00,,---,0.00,VWS V14.01,2013-01-05 22:20:00,
2013-01-05 17:25:00,28.2,17.3,30.00,SW,225,0.0,0.0,63,0.00,,---,0.00,VWS V14.01,2013-01-05 22:25:00,
2013-01-05 17:30:00,28.0,17.5,30.00,SW,225,0.0,0.0,64,0.00,,---,0.00,VWS V14.01,2013-01-05 22:30:00,
2013-01-05 17:35:00,28.0,17.5,29.97,SW,225,0.0,0.0,64,0.00,,---,0.00,VWS V14.01,2013-01-05 22:35:00,
2013-01-05 17:40:00,27.9,17.3,29.97,SW,225,0.0,0.0,64,0.00,,---,0.00,VWS V14.01,2013-01-05 22:40:00,
2013-01-05 17:45:00,27.9,17.3,29.97,SW,225,0.0,0.0,64,0.00,,---,0.00,VWS V14.01,2013-01-05 22:45:00,
2013-01-05 17:50:00,27.9,17.6,29.97,SW,225,0.0,0.0,65,0.00,,---,0.00,VWS V14.01,2013-01-05 22:50:00,
2013-01-05 17:54:00,27.9,17.6,29.97,SW,225,0.0,0.0,65,0.00,,---,0.00,VWS V14.01,2013-01-05 22:54:00,
2013-01-05 17:59:00,27.9,17.6,29.97,SW,225,0.0,0.0,65,0.00,,---,0.00,VWS V14.01,2013-01-05 22:59:00,
2013-01-05 18:04:00,27.9,17.6,29.97,SW,225,0.0,0.0,65,0.00,,---,0.00,VWS V14.01,2013-01-05 23:04:00,
2013-01-05 18:09:00,27.9,18.0,29.97,SW,225,0.0,0.0,66,0.00,,---,0.00,VWS V14.01,2013-01-05 23:09:00,
2013-01-05 18:14:00,27.7,17.8,29.97,SW,225,0.0,0.0,66,0.00,,---,0.00,VWS V14.01,2013-01-05 23:14:00,
2013-01-05 18:19:00,27.7,17.8,29.97,SW,225,0.0,0.0,66,0.00,,---,0.00,VWS V14.01,2013-01-05 23:19:00,
2013-01-05 18:24:00,27.7,17.8,29.97,SW,225,0.0,0.0,66,0.00,,---,0.00,VWS V14.01,2013-01-05 23:24:00,
2013-01-05 18:29:00,27.5,18.0,29.97,SW,225,0.0,0.0,67,0.00,,---,0.00,VWS V14.01,2013-01-05 23:29:00,
2013-01-05 18:34:00,27.5,18.0,29.94,SW,225,0.0,0.0,67,0.00,,---,0.00,VWS V14.01,2013-01-05 23:34:00,
2013-01-05 18:39:00,27.5,18.0,29.94,SW,225,0.0,0.0,67,0.00,,---,0.00,VWS V14.01,2013-01-05 23:39:00,
2013-01-05 18:44:00,27.5,18.0,29.94,SW,225,0.0,0.0,67,0.00,,---,0.00,VWS V14.01,2013-01-05 23:44:00,
2013-01-05 18:49:00,27.5,18.0,29.97,SW,225,0.0,0.0,67,0.00,,---,0.00,VWS V14.01,2013-01-05 23:49:00,
2013-01-05 18:54:00,27.5,18.0,29.97,SW,225,0.0,0.0,67,0.00,,---,0.00,VWS V14.01,2013-01-05 23:54:00,
2013-01-05 18:59:00,27.5,18.3,29.97,SW,225,0.0,0.0,68,0.00,,---,0.00,VWS V14.01,2013-01-05 23:59:00,
2013-01-05 19:04:00,27.5,18.3,29.97,SW,225,0.0,0.0,68,0.00,,---,0.00,VWS V14.01,2013-01-06 00:04:00,
2013-01-05 19:09:00,27.5,18.3,29.97,SW,225,0.0,0.0,68,0.00,,---,0.00,VWS V14.01,2013-01-06 00:09:00,
2013-01-05 19:14:00,27.5,18.7,29.97,SW,225,0.0,0.0,69,0.00,,---,0.00,VWS V14.01,2013-01-06 00:14:00,
2013-01-05 19:19:00,27.5,18.7,29.97,SW,225,0.0,0.0,69,0.00,,---,0.00,VWS V14.01,2013-01-06 00:19:00,
2013-01-05 19:24:00,27.5,18.7,29.97,SW,225,0.0,0.0,69,0.00,,---,0.00,VWS V14.01,2013-01-06 00:24:00,
2013-01-05 19:29:00,27.5,19.0,29.97,SW,225,0.0,0.0,70,0.00,,---,0.00,VWS V14.01,2013-01-06 00:29:00,
2013-01-05 19:34:00,27.5,19.0,29.97,SW,225,0.0,0.0,70,0.00,,---,0.00,VWS V14.01,2013-01-06 00:34:00,
2013-01-05 19:39:00,27.5,19.0,29.97,SW,225,0.0,0.0,70,0.00,,---,0.00,VWS V14.01,2013-01-06 00:39:00,
2013-01-05 19:44:00,27.5,19.0,29.97,SW,225,0.0,0.0,70,0.00,,---,0.00,VWS V14.01,2013-01-06 00:44:00,
2013-01-05 19:49:00,27.5,19.4,29.97,SW,225,0.0,0.0,71,0.00,,---,0.00,VWS V14.01,2013-01-06 00:49:00,
2013-01-05 19:54:00,27.7,19.5,29.97,SW,225,0.0,0.0,71,0.00,,---,0.00,VWS V14.01,2013-01-06 00:54:00,
2013-01-05 19:59:00,27.7,19.5,29.97,SW,225,0.0,0.0,71,0.00,,---,0.00,VWS V14.01,2013-01-06 00:59:00,
2013-01-05 20:04:00,27.7,19.5,29.94,SW,225,0.0,0.0,71,0.00,,---,0.00,VWS V14.01,2013-01-06 01:04:00,
2013-01-05 20:09:00,27.7,19.5,29.94,SW,225,0.0,0.0,71,0.00,,---,0.00,VWS V14.01,2013-01-06 01:09:00,
2013-01-05 20:14:00,27.7,19.5,29.94,SW,225,0.0,0.0,71,0.00,,---,0.00,VWS V14.01,2013-01-06 01:14:00,
2013-01-05 20:19:00,27.7,19.9,29.94,SW,225,0.0,0.0,72,0.00,,---,0.00,VWS V14.01,2013-01-06 01:19:00,
2013-01-05 20:24:00,27.7,19.9,29.94,SW,225,0.0,0.0,72,0.00,,---,0.00,VWS V14.01,2013-01-06 01:24:00,
2013-01-05 20:29:00,27.9,20.0,29.94,SW,225,0.0,0.0,72,0.00,,---,0.00,VWS V14.01,2013-01-06 01:29:00,
2013-01-05 20:34:00,27.9,20.0,29.94,SW,225,0.0,0.0,72,0.00,,---,0.00,VWS V14.01,2013-01-06 01:34:00,
2013-01-05 20:39:00,27.9,20.3,29.94,SW,225,0.0,0.0,73,0.00,,---,0.00,VWS V14.01,2013-01-06 01:39:00,
2013-01-05 20:44:00,28.0,20.5,29.94,SW,225,0.0,0.0,73,0.00,,---,0.00,VWS V14.01,2013-01-06 01:44:00,
2013-01-05 20:49:00,28.2,21.0,29.94,SW,225,0.0,0.0,74,0.00,,---,0.00,VWS V14.01,2013-01-06 01:49:00,
2013-01-05 20:54:00,28.4,21.5,29.94,SW,225,0.0,0.0,75,0.00,,---,0.00,VWS V14.01,2013-01-06 01:54:00,
2013-01-05 20:59:00,28.4,21.5,29.94,SW,225,0.0,0.0,75,0.00,,---,0.00,VWS V14.01,2013-01-06 01:59:00,
2013-01-05 21:04:00,28.6,21.7,29.91,SW,225,0.0,0.0,75,0.00,,---,0.00,VWS V14.01,2013-01-06 02:04:00,
2013-01-05 21:09:00,28.6,21.7,29.91,SW,225,0.0,0.0,75,0.00,,---,0.00,VWS V14.01,2013-01-06 02:09:00,
2013-01-05 21:14:00,28.6,21.7,29.91,SW,225,0.0,0.0,75,0.00,,---,0.00,VWS V14.01,2013-01-06 02:14:00,
2013-01-05 21:19:00,28.4,22.1,29.91,SW,225,0.0,0.0,77,0.00,,---,0.00,VWS V14.01,2013-01-06 02:19:00,
2013-01-05 21:24:00,28.4,22.4,29.91,SW,225,0.0,0.0,78,0.00,,---,0.00,VWS V14.01,2013-01-06 02:24:00,
2013-01-05 21:29:00,28.4,22.4,29.91,SW,225,0.0,0.0,78,0.00,,---,0.00,VWS V14.01,2013-01-06 02:29:00,
2013-01-05 21:34:00,28.4,22.7,29.97,SW,225,0.0,0.0,79,0.00,,---,0.00,VWS V14.01,2013-01-06 02:34:00,
2013-01-05 21:39:00,28.4,22.7,29.97,SW,225,0.0,0.0,79,0.00,,---,0.00,VWS V14.01,2013-01-06 02:39:00,
2013-01-05 21:44:00,28.6,22.9,29.97,SW,225,0.0,0.0,79,0.00,,---,0.00,VWS V14.01,2013-01-06 02:44:00,
2013-01-05 21:49:00,28.6,23.2,29.94,SW,225,0.0,0.0,80,0.00,,---,0.00,VWS V14.01,2013-01-06 02:49:00,
2013-01-05 21:54:00,28.6,23.2,29.94,SW,225,0.0,0.0,80,0.00,,---,0.00,VWS V14.01,2013-01-06 02:54:00,
2013-01-05 21:59:00,28.6,23.5,29.94,SW,225,0.0,0.0,81,0.00,,---,0.00,VWS V14.01,2013-01-06 02:59:00,
2013-01-05 22:04:00,28.6,23.5,29.94,SW,225,0.0,0.0,81,0.00,,---,0.00,VWS V14.01,2013-01-06 03:04:00,
2013-01-05 22:09:00,28.6,23.8,29.94,SW,225,0.0,0.0,82,0.00,,---,0.00,VWS V14.01,2013-01-06 03:09:00,
2013-01-05 22:14:00,28.6,24.1,29.94,SW,225,0.0,0.0,83,0.00,,---,0.00,VWS V14.01,2013-01-06 03:14:00,
2013-01-05 22:19:00,28.8,24.5,29.94,SW,225,0.0,0.0,84,0.00,,---,0.00,VWS V14.01,2013-01-06 03:19:00,
2013-01-05 22:24:00,28.8,24.8,29.94,SW,225,0.0,0.0,85,0.00,,---,0.00,VWS V14.01,2013-01-06 03:24:00,
2013-01-05 22:29:00,28.8,25.1,29.94,SW,225,0.0,0.0,86,0.00,,---,0.00,VWS V14.01,2013-01-06 03:29:00,
2013-01-05 22:34:00,28.9,25.3,29.94,SW,225,0.0,0.0,86,0.00,,---,0.00,VWS V14.01,2013-01-06 03:34:00,
2013-01-05 22:39:00,28.9,25.3,29.94,SW,225,0.0,0.0,86,0.00,,---,0.00,VWS V14.01,2013-01-06 03:39:00,
2013-01-05 22:44:00,28.9,25.6,29.94,SW,225,0.0,0.0,87,0.00,,---,0.00,VWS V14.01,2013-01-06 03:44:00,
2013-01-05 22:49:00,29.1,25.7,29.91,SW,225,0.0,0.0,87,0.00,,---,0.00,VWS V14.01,2013-01-06 03:49:00,
2013-01-05 22:54:00,29.1,25.7,29.91,SW,225,0.0,0.0,87,0.00,,---,0.00,VWS V14.01,2013-01-06 03:54:00,
2013-01-05 22:59:00,29.3,25.9,29.91,SW,225,0.0,0.0,87,0.00,,---,0.00,VWS V14.01,2013-01-06 03:59:00,
2013-01-05 23:04:00,29.3,25.9,29.91,SW,225,0.0,0.0,87,0.00,,---,0.00,VWS V14.01,2013-01-06 04:04:00,
2013-01-05 23:09:00,29.3,26.2,29.91,SW,225,0.0,0.0,88,0.00,,---,0.00,VWS V14.01,2013-01-06 04:09:00,
2013-01-05 23:14:00,29.5,26.4,29.91,SW,225,0.0,0.0,88,0.00,,---,0.00,VWS V14.01,2013-01-06 04:14:00,
2013-01-05 23:19:00,29.5,26.4,29.91,SW,225,0.0,0.0,88,0.00,,---,0.00,VWS V14.01,2013-01-06 04:19:00,
2013-01-05 23:24:00,29.5,26.4,29.91,SW,225,0.0,0.0,88,0.00,,---,0.00,VWS V14.01,2013-01-06 04:24:00,
2013-01-05 23:29:00,29.5,26.6,29.91,SW,225,0.0,0.0,89,0.00,,---,0.00,VWS V14.01,2013-01-06 04:29:00,
2013-01-05 23:34:00,29.5,26.6,29.91,SW,225,0.0,0.0,89,0.00,,---,0.00,VWS V14.01,2013-01-06 04:34:00,
2013-01-05 23:39:00,29.5,26.9,29.91,SW,225,0.0,0.0,90,0.00,,---,0.00,VWS V14.01,2013-01-06 04:39:00,
2013-01-05 23:44:00,29.7,27.1,29.91,SW,225,0.0,0.0,90,0.00,,---,0.00,VWS V14.01,2013-01-06 04:44:00,
2013-01-05 23:48:00,29.7,27.1,29.91,SW,225,0.0,0.0,90,0.00,,---,0.00,VWS V14.01,2013-01-06 04:48:00,
2013-01-05 23:54:00,29.7,27.1,29.91,SW,225,0.0,0.0,90,0.00,,---,0.00,VWS V14.01,2013-01-06 04:54:00,
2013-01-05 23:58:00,29.8,27.3,29.91,SW,225,0.0,0.0,90,0.00,,---,0.00,VWS V14.01,2013-01-06 04:58:00,